Location: Binningen
(47.7924°N, 8.7261°E)
Time: 18:34:44
(UTC+00:00)

Cosmos 724 - Pass Details

Date: 17 May 2021
Orbit: 848 x 947 km, 65.6° (Epoch: 21 June)

Event Time Altitude Azimuth Distance (km) Brightness Sun altitude
Exits shadow 22:45:28 38° 207° (SSW) 1,403 4.9 -22.2°
Maximum altitude 22:48:02 82° 125° (SE) 955 4.3 -22.2°
Drops below altitude 10° 22:54:19 10° 38° (NE) 2,676 7.4 -22.4°
Sets 22:56:53 0° 38° (NE) 3,624 8.2 -22.4°
